QPF
0.00 0.00 0.00 0.00 0.00 0.00 0.00 0.00 0.00 0.00 0.00 0.00 0.00 0.00 0.00 0.00 0.00 0.00 0.00 0.00 0.00 0.00 0.00 0.00 0.02 0.03 0.03 0.03 0.02 0.04 0.05 0.05 0.04 0.04 0.02 0.00 0.00 0.00 0.00 0.00 0.00 0.01 0.01
0.00 0.00 0.00 0.00 0.00 0.00 0.00 0.00 0.00 0.00 0.00 0.00 0.00 0.00 0.00 0.00 0.00 0.00 0.00 0.00 0.00 0.00 0.00 0.00 0.00 0.00 0.01 0.01 0.03 0.05 0.05 0.04 0.03 0.03 0.03 0.02 0.01 0.00 0.00 0.00 0.00 0.00 0.01
0.00 0.00 0.00 0.00 0.00 0.00 0.00 0.00 0.00 0.00 0.00 0.00 0.00 0.00 0.00 0.00 0.00 0.00 0.00 0.00 0.00 0.00 0.00 0.00 0.00 0.00 0.00 0.00 0.01 0.03 0.07 0.08 0.07 0.08 0.09 0.08 0.06 0.04 0.02 0.01 0.00 0.00 0.00
0.00 0.00 0.00 0.00 0.00 0.00 0.00 0.00 0.00 0.00 0.00 0.00 0.00 0.00 0.00 0.00 0.00 0.00 0.00 0.00 0.00 0.00 0.00 0.00 0.00 0.00 0.00 0.00 0.00 0.00 0.01 0.04 0.08 0.11 0.11 0.13 0.14 0.12 0.11 0.09 0.05 0.02 0.01
0.00 0.00 0.00 0.00 0.00 0.00 0.00 0.00 0.00 0.00 0.00 0.00 0.00 0.00 0.00 0.00 0.00 0.00 0.00 0.00 0.00 0.00 0.00 0.00 0.00 0.00 0.00 0.00 0.00 0.00 0.00 0.00 0.01 0.03 0.06 0.09 0.10 0.11 0.14 0.18 0.16 0.14 0.07
0.00 0.00 0.00 0.00 0.00 0.00 0.00 0.00 0.00 0.00 0.00 0.00 0.00 0.00 0.00 0.00 0.00 0.00 0.00 0.00 0.00 0.00 0.00 0.00 0.00 0.00 0.00 0.00 0.00 0.00 0.00 0.00 0.00 0.00 0.02 0.03 0.03 0.06 0.11 0.15 0.15 0.11 0.11
0.00 0.00 0.00 0.00 0.00 0.00 0.00 0.00 0.00 0.00 0.00 0.00 0.00 0.00 0.00 0.00 0.00 0.00 0.00 0.00 0.00 0.00 0.00 0.00 0.00 0.00 0.00 0.00 0.00 0.00 0.00 0.00 0.00 0.00 0.01 0.02 0.02 0.02 0.03 0.06 0.08 0.08 0.07
0.00 0.00 0.00 0.00 0.00 0.00 0.00 0.00 0.00 0.00 0.00 0.00 0.00 0.00 0.00 0.00 0.00 0.00 0.00 0.00 0.00 0.00 0.00 0.00 0.00 0.00 0.00 0.00 0.00 0.00 0.00 0.00 0.00 0.00 0.01 0.01 0.02 0.02 0.01 0.00 0.00 0.01 0.03
0.00 0.00 0.00 0.00 0.00 0.00 0.00 0.00 0.00 0.00 0.00 0.00 0.00 0.00 0.00 0.00 0.00 0.00 0.00 0.00 0.00 0.00 0.00 0.00 0.00 0.00 0.00 0.00 0.00 0.00 0.00 0.00 0.00 0.00 0.01 0.03 0.04 0.03 0.03 0.03 0.02 0.02 0.03
0.00 0.00 0.00 0.00 0.00 0.00 0.00 0.00 0.00 0.00 0.00 0.00 0.00 0.00 0.00 0.00 0.00 0.00 0.00 0.00 0.00 0.00 0.00 0.00 0.00 0.00 0.00 0.00 0.00 0.00 0.00 0.00 0.00 0.03 0.04 0.04 0.06 0.06 0.07 0.07 0.07 0.11 0.08
0.00 0.00 0.00 0.00 0.00 0.00 0.00 0.00 0.00 0.00 0.00 0.00 0.00 0.00 0.00 0.00 0.00 0.00 0.00 0.00 0.00 0.00 0.00 0.00 0.00 0.00 0.00 0.00 0.00 0.00 0.00 0.00 0.03 0.12 0.13 0.07 0.13 0.16 0.19 0.12 0.13 0.05 0.03
0.00 0.00 0.00 0.00 0.00 0.00 0.00 0.00 0.00 0.00 0.00 0.00 0.00 0.00 0.00 0.00 0.00 0.00 0.00 0.00 0.00 0.00 0.00 0.00 0.00 0.00 0.00 0.00 0.00 0.00 0.00 0.00 0.03 0.08 0.02 0.03 0.18 0.23 0.15 0.07 0.06 0.02 0.00
0.00 0.00 0.00 0.00 0.00 0.00 0.00 0.00 0.00 0.00 0.00 0.00 0.00 0.00 0.00 0.00 0.00 0.01 0.01 0.00 0.00 0.00 0.00 0.00 0.00 0.00 0.00 0.00 0.00 0.00 0.00 0.00 0.00 0.01 0.01 0.01 0.01 0.01 0.01 0.02 0.02 0.01 0.00
0.00 0.00 0.00 0.00 0.00 0.00 0.00 0.00 0.00 0.00 0.00 0.00 0.00 0.00 0.00 0.00 0.00 0.00 0.00 0.00 0.00 0.00 0.00 0.00 0.00 0.00 0.00 0.00 0.00 0.00 0.00 0.00 0.00 0.00 0.00 0.00 0.00 0.00 0.00 0.00 0.00 0.00 0.00
0.00 0.00 0.00 0.00 0.00 0.00 0.00 0.00 0.00 0.00 0.00 0.00 0.00 0.00 0.00 0.00 0.00 0.00 0.00 0.00 0.00 0.00 0.00 0.00 0.00 0.00 0.00 0.00 0.00 0.00 0.00 0.00 0.00 0.00 0.00 0.00 0.00 0.00 0.00 0.00 0.00 0.00 0.00
0.00 0.00 0.00 0.00 0.00 0.00 0.00 0.00 0.00 0.00 0.00 0.00 0.00 0.00 0.00 0.00 0.00 0.00 0.00 0.00 0.00 0.00 0.00 0.00 0.00 0.00 0.00 0.00 0.00 0.00 0.00 0.00 0.00 0.00 0.00 0.00 0.00 0.00 0.00 0.00 0.00 0.00 0.00
0.00 0.00 0.00 0.00 0.00 0.00 0.00 0.00 0.00 0.00 0.00 0.00 0.00 0.00 0.00 0.00 0.00 0.00 0.00 0.00 0.00 0.00 0.00 0.00 0.00 0.00 0.00 0.00 0.00 0.00 0.00 0.00 0.00 0.00 0.00 0.00 0.00 0.00 0.00 0.00 0.00 0.00 0.00
0.00 0.00 0.00 0.00 0.00 0.00 0.00 0.00 0.00 0.00 0.00 0.00 0.00 0.00 0.00 0.00 0.00 0.00 0.00 0.00 0.00 0.00 0.00 0.00 0.00 0.00 0.00 0.00 0.00 0.00 0.00 0.00 0.00 0.00 0.00 0.00 0.00 0.00 0.00 0.00 0.00 0.00 0.00
0.00 0.00 0.00 0.00 0.00 0.00 0.00 0.00 0.00 0.00 0.00 0.00 0.00 0.00 0.00 0.00 0.00 0.00 0.00 0.00 0.00 0.00 0.00 0.00 0.00 0.00 0.00 0.00 0.00 0.00 0.00 0.00 0.00 0.00 0.00 0.00 0.00 0.00 0.00 0.00 0.00 0.00 0.00
0.00 0.00 0.00 0.00 0.00 0.00 0.00 0.00 0.00 0.00 0.00 0.00 0.00 0.00 0.00 0.00 0.00 0.00 0.00 0.00 0.00 0.00 0.00 0.00 0.00 0.00 0.00 0.00 0.00 0.00 0.00 0.00 0.00 0.00 0.00 0.00 0.00 0.00 0.00 0.00 0.00 0.00 0.00
0.00 0.00 0.00 0.00 0.00 0.00 0.00 0.00 0.00 0.00 0.00 0.00 0.00 0.00 0.00 0.00 0.00 0.00 0.00 0.00 0.00 0.00 0.00 0.00 0.00 0.00 0.00 0.00 0.00 0.00 0.00 0.00 0.00 0.00 0.00 0.00 0.00 0.00 0.00 0.00 0.00 0.00 0.00
0.00 0.00 0.00 0.00 0.00 0.00 0.00 0.00 0.00 0.00 0.00 0.00 0.00 0.00 0.00 0.00 0.00 0.00 0.00 0.00 0.00 0.00 0.00 0.00 0.00 0.00 0.00 0.00 0.00 0.00 0.00 0.00 0.00 0.00 0.00 0.00 0.00 0.00 0.00 0.00 0.00 0.00 0.00
0.00 0.00 0.00 0.00 0.00 0.00 0.00 0.00 0.00 0.00 0.00 0.00 0.00 0.00 0.00 0.00 0.00 0.00 0.00 0.00 0.00 0.00 0.00 0.00 0.00 0.00 0.00 0.00 0.00 0.00 0.00 0.00 0.00 0.00 0.00 0.00 0.00 0.00 0.00 0.00 0.00 0.00 0.00
0.00 0.00 0.00 0.00 0.00 0.00 0.00 0.00 0.00 0.00 0.00 0.00 0.00 0.00 0.00 0.00 0.00 0.00 0.00 0.00 0.00 0.00 0.00 0.00 0.00 0.00 0.00 0.00 0.00 0.00 0.00 0.00 0.00 0.00 0.00 0.00 0.00 0.00 0.00 0.00 0.00 0.00 0.00
0.00 0.00 0.00 0.00 0.00 0.00 0.00 0.00 0.00 0.00 0.00 0.00 0.00 0.00 0.00 0.00 0.00 0.00 0.00 0.00 0.00 0.00 0.00 0.00 0.00 0.00 0.00 0.00 0.00 0.00 0.00 0.00 0.00 0.00 0.00 0.00 0.00 0.00 0.00 0.00 0.00 0.00 0.00
0.00 0.00 0.00 0.00 0.00 0.00 0.00 0.00 0.00 0.00 0.00 0.00 0.00 0.00 0.00 0.00 0.00 0.00 0.00 0.00 0.00 0.00 0.00 0.00 0.00 0.00 0.00 0.00 0.00 0.00 0.00 0.00 0.00 0.00 0.00 0.00 0.00 0.00 0.00 0.00 0.00 0.00 0.00
MSLP
1018.85 1018.67 1018.48 1018.25 1018.05 1017.79 1017.59 1017.35 1017.09 1016.79 1016.54 1016.22 1015.93 1015.72 1015.40 1015.13 1014.90 1014.74 1014.59 1014.39 1014.26 1014.16 1013.98 1013.78 1013.59 1013.41 1013.20 1013.01 1012.87 1012.70 1012.72 1012.90 1013.05 1013.17 1013.36 1013.57 1013.75 1013.91 1014.07 1014.29 1014.46 1014.62 1014.72
1018.90 1018.72 1018.57 1018.30 1018.03 1017.79 1017.52 1017.26 1016.99 1016.70 1016.41 1016.11 1015.83 1015.44 1015.18 1014.97 1014.75 1014.55 1014.34 1014.16 1014.00 1013.91 1013.79 1013.60 1013.38 1013.15 1012.94 1012.70 1012.43 1012.23 1012.16 1012.10 1012.09 1012.27 1012.46 1012.67 1012.83 1012.95 1013.15 1013.43 1013.74 1013.92 1014.02
1019.00 1018.88 1018.68 1018.40 1018.09 1017.77 1017.43 1017.10 1016.72 1016.43 1016.27 1015.86 1015.69 1015.38 1015.03 1014.72 1014.54 1014.39 1014.21 1014.04 1013.92 1013.79 1013.65 1013.43 1013.19 1012.91 1012.62 1012.34 1012.07 1011.80 1011.53 1011.44 1011.42 1011.57 1011.72 1011.90 1011.86 1011.79 1011.84 1012.34 1012.74 1013.19 1013.48
1018.95 1018.90 1018.73 1018.47 1018.16 1017.76 1017.46 1017.19 1016.89 1016.57 1016.23 1015.96 1015.67 1015.14 1014.80 1014.47 1014.20 1014.14 1014.11 1014.10 1013.99 1013.80 1013.57 1013.31 1013.08 1012.81 1012.48 1012.19 1011.84 1011.48 1011.12 1010.90 1010.74 1010.75 1010.76 1010.98 1010.88 1010.91 1011.17 1011.38 1011.92 1012.38 1013.03
1018.82 1018.81 1018.65 1018.46 1018.23 1017.84 1017.58 1017.31 1016.91 1016.65 1016.29 1015.88 1015.45 1014.95 1014.55 1014.28 1014.18 1014.06 1014.10 1013.92 1013.82 1013.73 1013.57 1013.29 1012.96 1012.64 1012.41 1012.07 1011.68 1011.25 1010.89 1010.65 1010.48 1010.26 1010.04 1009.98 1010.02 1010.24 1009.69 1010.46 1011.25 1011.42 1011.61
1018.88 1018.77 1018.60 1018.38 1018.17 1017.93 1017.64 1017.34 1017.01 1016.45 1016.13 1015.90 1015.28 1014.78 1014.23 1014.14 1014.11 1014.18 1014.10 1013.94 1013.88 1013.64 1013.46 1013.26 1013.06 1012.71 1012.44 1012.07 1011.75 1011.33 1010.97 1010.56 1010.17 1009.74 1009.51 1009.29 1008.93 1008.78 1009.04 1009.50 1010.15 1010.39 1010.84
1018.84 1018.77 1018.60 1018.41 1018.17 1017.97 1017.73 1017.55 1017.12 1016.77 1016.16 1015.78 1015.49 1014.80 1014.29 1014.25 1014.18 1014.14 1014.05 1014.17 1013.93 1013.62 1013.42 1013.33 1013.09 1012.81 1012.48 1012.13 1011.82 1011.45 1010.99 1010.41 1009.79 1009.26 1008.86 1008.66 1008.51 1008.36 1008.38 1008.67 1009.02 1009.57 1009.81
1018.88 1018.68 1018.59 1018.38 1018.18 1017.80 1017.71 1017.57 1017.20 1016.88 1016.62 1016.21 1016.13 1015.73 1015.38 1014.83 1014.38 1014.14 1014.16 1014.14 1013.85 1013.57 1013.45 1013.34 1013.15 1012.82 1012.47 1012.17 1011.89 1011.44 1011.02 1010.21 1009.35 1008.63 1008.05 1007.59 1007.52 1007.65 1007.64 1007.66 1008.18 1008.70 1008.48
1018.80 1018.64 1018.46 1018.16 1017.95 1017.70 1017.68 1017.62 1017.18 1016.90 1016.70 1016.34 1016.20 1016.34 1015.98 1015.93 1015.37 1014.48 1014.35 1014.27 1013.92 1013.81 1013.76 1013.55 1013.18 1012.86 1012.65 1012.30 1011.88 1011.64 1010.99 1010.02 1008.94 1007.62 1006.80 1006.60 1006.37 1006.57 1006.68 1006.83 1007.20 1007.47 1007.98
1018.72 1018.54 1018.41 1018.25 1018.10 1017.79 1017.65 1017.45 1017.16 1016.92 1016.76 1016.50 1016.10 1016.00 1016.31 1016.43 1016.12 1015.50 1014.90 1014.52 1014.24 1014.06 1013.94 1013.74 1013.49 1013.19 1012.95 1012.58 1012.32 1012.00 1011.03 1009.92 1008.24 1006.52 1005.76 1005.59 1005.44 1005.50 1005.65 1006.09 1006.69 1006.95 1007.28
1018.64 1018.42 1018.38 1018.28 1018.03 1017.83 1017.60 1017.34 1017.13 1016.96 1016.74 1016.58 1016.44 1016.28 1016.26 1016.30 1016.18 1016.15 1015.32 1014.72 1014.48 1014.14 1014.16 1014.09 1013.97 1013.64 1013.29 1012.98 1012.76 1012.42 1011.45 1010.32 1008.66 1007.61 1006.53 1005.43 1004.75 1004.82 1005.14 1005.77 1006.75 1007.02 1006.37
1018.47 1018.32 1018.22 1018.14 1017.91 1017.63 1017.40 1017.18 1017.03 1016.76 1016.60 1016.43 1016.31 1016.24 1016.18 1016.14 1015.88 1015.76 1015.40 1014.89 1014.58 1014.16 1014.03 1014.18 1014.09 1013.89 1013.62 1013.35 1013.05 1012.66 1011.92 1010.97 1009.70 1008.45 1007.76 1007.16 1006.34 1005.94 1005.59 1005.46 1007.00 1007.32 1008.13
1018.09 1017.91 1017.87 1017.89 1017.93 1017.61 1017.21 1016.85 1016.80 1016.50 1016.26 1016.09 1016.06 1016.05 1015.90 1015.78 1015.63 1015.49 1015.24 1014.93 1014.53 1014.27 1014.03 1014.17 1014.23 1014.07 1013.85 1013.61 1013.30 1012.83 1012.25 1011.58 1010.73 1009.82 1008.96 1008.77 1008.05 1007.23 1007.84 1007.86 1008.21 1008.71 1009.01
1017.52 1017.46 1017.45 1017.45 1017.36 1017.30 1017.17 1016.81 1016.72 1016.52 1016.19 1015.98 1016.00 1015.97 1016.07 1015.93 1015.76 1015.66 1015.46 1015.23 1014.64 1014.21 1013.84 1013.90 1014.06 1014.05 1014.02 1013.89 1013.78 1013.31 1012.66 1011.78 1011.21 1010.76 1010.35 1009.99 1009.59 1009.50 1009.36 1009.60 1009.54 1009.33 1009.24
1017.00 1016.94 1016.99 1017.12 1016.99 1016.99 1016.82 1016.74 1016.62 1016.48 1016.17 1015.95 1015.88 1015.96 1016.07 1015.82 1015.69 1015.62 1015.54 1015.53 1015.20 1014.54 1013.98 1013.74 1013.98 1013.91 1013.82 1013.68 1013.63 1013.60 1013.26 1012.50 1011.75 1011.37 1011.14 1010.90 1010.58 1010.54 1010.57 1010.57 1010.19 1009.99 1009.99
1016.41 1016.33 1016.41 1016.56 1016.60 1016.58 1016.55 1016.51 1016.38 1016.26 1016.22 1016.02 1015.98 1016.02 1015.94 1015.74 1015.59 1015.56 1015.60 1015.57 1015.45 1015.14 1014.57 1013.86 1013.89 1013.98 1013.93 1013.84 1013.71 1013.63 1013.45 1013.11 1012.52 1012.10 1011.85 1011.58 1011.39 1011.34 1011.31 1011.21 1010.93 1010.93 1011.26
1015.81 1015.81 1015.81 1015.88 1015.95 1015.93 1015.88 1015.97 1015.97 1016.00 1016.05 1015.94 1015.89 1015.93 1015.85 1015.79 1015.69 1015.59 1015.52 1015.50 1015.35 1015.25 1014.81 1014.00 1013.91 1014.00 1014.01 1013.94 1013.85 1013.74 1013.56 1013.46 1013.14 1012.71 1012.59 1012.38 1012.21 1011.98 1011.83 1011.85 1011.79 1011.95 1011.99
1015.29 1015.28 1015.28 1015.35 1015.33 1015.29 1015.26 1015.32 1015.40 1015.44 1015.57 1015.58 1015.52 1015.60 1015.54 1015.49 1015.56 1015.51 1015.51 1015.53 1015.45 1015.32 1015.15 1014.58 1014.03 1013.99 1014.11 1014.08 1013.90 1013.93 1013.83 1013.63 1013.65 1013.30 1013.13 1012.94 1012.67 1012.53 1012.45 1012.46 1012.45 1012.48 1012.48
1014.60 1014.54 1014.63 1014.73 1014.72 1014.68 1014.74 1014.71 1014.72 1014.73 1014.80 1014.88 1015.05 1015.26 1015.26 1015.43 1015.47 1015.38 1015.26 1015.22 1015.15 1014.95 1014.98 1014.91 1014.50 1014.08 1014.02 1014.03 1013.95 1013.84 1013.89 1013.90 1013.82 1013.70 1013.54 1013.34 1013.02 1012.79 1012.78 1012.83 1012.89 1012.93 1013.02
1014.06 1013.79 1013.61 1013.63 1013.70 1013.75 1013.88 1014.00 1014.14 1014.22 1014.25 1014.22 1014.22 1014.27 1014.42 1014.71 1014.97 1015.14 1015.26 1015.29 1015.21 1015.16 1015.08 1014.99 1014.78 1014.49 1014.30 1014.20 1014.27 1014.34 1014.34 1014.30 1014.24 1014.13 1014.04 1013.90 1013.76 1013.54 1013.39 1013.46 1013.41 1013.29 1013.08
1013.55 1013.23 1013.06 1012.95 1012.87 1012.99 1013.00 1013.14 1013.35 1013.53 1013.69 1013.74 1013.73 1013.78 1013.82 1013.88 1013.97 1014.04 1014.22 1014.43 1014.74 1014.79 1014.82 1014.97 1015.02 1015.00 1014.83 1014.69 1014.58 1014.47 1014.53 1014.61 1014.60 1014.53 1014.34 1014.26 1014.15 1014.21 1013.99 1013.69 1013.35 1013.23 1013.09
1013.12 1012.85 1012.67 1012.52 1012.34 1012.15 1011.99 1012.11 1012.37 1012.64 1012.76 1012.97 1013.10 1013.09 1013.05 1013.10 1013.11 1013.24 1013.40 1013.59 1013.88 1014.07 1014.46 1014.70 1014.60 1014.48 1014.24 1014.22 1014.29 1014.48 1014.71 1014.81 1014.98 1014.87 1014.68 1014.30 1014.23 1014.13 1014.16 1014.08 1013.70 1013.30 1013.38
1012.69 1012.46 1012.16 1012.03 1011.75 1011.42 1011.35 1011.31 1011.51 1011.78 1011.99 1012.09 1012.22 1012.45 1012.61 1012.54 1012.64 1012.83 1012.97 1013.02 1013.08 1013.19 1013.36 1013.66 1013.98 1014.04 1013.98 1013.75 1013.94 1014.28 1014.57 1014.84 1014.94 1014.75 1014.85 1014.70 1014.51 1014.40 1014.15 1014.00 1013.72 1013.56 1013.67
1012.45 1012.05 1011.71 1011.52 1011.34 1010.91 1010.89 1010.76 1010.77 1010.90 1011.14 1011.16 1011.35 1011.51 1011.73 1011.85 1012.11 1012.48 1012.74 1012.90 1012.86 1012.90 1012.88 1012.93 1013.08 1013.13 1013.18 1013.29 1013.48 1013.65 1014.03 1014.46 1014.55 1014.62 1014.83 1014.93 1014.68 1014.59 1014.35 1014.03 1013.64 1013.67 1013.98
1011.99 1011.60 1011.29 1011.17 1011.13 1010.67 1010.59 1010.44 1010.48 1010.50 1010.60 1010.46 1010.53 1010.60 1010.78 1010.91 1011.14 1011.57 1012.13 1012.23 1012.37 1012.35 1012.29 1012.13 1012.25 1012.33 1012.35 1012.53 1012.93 1013.50 1014.00 1014.41 1014.63 1014.63 1014.64 1014.75 1014.72 1014.70 1014.44 1014.16 1013.85 1013.60 1013.73
1011.91 1011.58 1011.11 1010.84 1010.71 1010.39 1010.16 1010.07 1010.06 1010.26 1010.29 1010.25 1010.12 1010.04 1010.05 1010.10 1010.18 1010.34 1010.73 1011.23 1011.56 1011.45 1011.95 1012.07 1012.12 1012.14 1012.25 1012.44 1012.52 1012.92 1013.38 1013.99 1014.29 1014.38 1014.27 1014.64 1014.67 1014.69 1014.50 1014.26 1013.84 1013.82 1013.80
Thickness
5675 5675 5675 5675 5675 5675 5674 5674 5674 5673 5672 5671 5670 5670 5669 5668 5667 5666 5665 5664 5663 5662 5661 5660 5660 5661 5661 5662 5663 5664 5663 5661 5659 5659 5657 5656 5654 5653 5653 5653 5652 5652 5652
5670 5669 5668 5668 5668 5667 5667 5666 5665 5665 5664 5663 5662 5662 5661 5659 5657 5656 5655 5654 5652 5651 5650 5651 5652 5652 5653 5654 5656 5656 5655 5656 5656 5654 5651 5649 5649 5648 5648 5647 5646 5646 5647
5663 5662 5660 5659 5659 5658 5657 5657 5657 5656 5655 5654 5653 5652 5651 5650 5649 5646 5644 5643 5641 5640 5640 5641 5643 5645 5646 5647 5648 5649 5649 5649 5648 5647 5645 5642 5643 5645 5647 5644 5643 5640 5639
5655 5653 5651 5649 5648 5648 5647 5646 5646 5645 5644 5643 5641 5642 5642 5642 5642 5639 5636 5632 5630 5629 5631 5632 5634 5636 5637 5638 5639 5640 5641 5641 5641 5639 5640 5639 5637 5628 5637 5639 5637 5635 5628
5648 5644 5642 5639 5637 5637 5636 5635 5634 5633 5633 5633 5633 5635 5636 5637 5635 5633 5630 5628 5626 5624 5625 5627 5629 5630 5630 5630 5631 5631 5631 5630 5629 5629 5631 5632 5632 5631 5642 5637 5631 5630 5625
5638 5635 5633 5631 5628 5626 5625 5624 5623 5625 5625 5624 5628 5631 5633 5632 5630 5626 5624 5622 5621 5621 5621 5621 5621 5622 5621 5621 5620 5619 5618 5617 5617 5617 5618 5621 5626 5632 5634 5633 5628 5628 5627
5629 5626 5623 5620 5619 5617 5616 5614 5615 5615 5619 5619 5618 5622 5625 5624 5622 5620 5618 5615 5615 5615 5615 5614 5615 5614 5613 5612 5609 5607 5605 5605 5603 5602 5604 5607 5611 5616 5622 5625 5626 5624 5626
5620 5617 5614 5613 5611 5610 5609 5606 5608 5608 5607 5607 5605 5605 5607 5613 5615 5614 5611 5610 5611 5611 5610 5609 5609 5608 5605 5601 5600 5598 5596 5596 5594 5593 5594 5595 5597 5602 5611 5618 5619 5621 5627
5613 5609 5606 5604 5602 5602 5600 5598 5601 5601 5600 5601 5599 5597 5598 5596 5601 5607 5607 5606 5608 5606 5603 5602 5602 5600 5597 5594 5593 5590 5589 5588 5588 5590 5590 5586 5590 5593 5601 5610 5614 5622 5623
5606 5602 5596 5591 5589 5591 5593 5593 5594 5593 5593 5594 5596 5596 5592 5591 5594 5589 5596 5599 5600 5599 5596 5594 5593 5592 5588 5586 5583 5581 5582 5583 5586 5589 5586 5580 5580 5586 5596 5605 5610 5617 5621
5599 5595 5586 5577 5577 5581 5585 5587 5587 5587 5588 5589 5590 5591 5591 5588 5586 5586 5589 5590 5592 5593 5589 5586 5583 5582 5581 5578 5574 5570 5570 5574 5577 5574 5572 5571 5577 5585 5594 5601 5598 5607 5620
5595 5590 5582 5575 5576 5579 5581 5582 5583 5585 5585 5586 5586 5587 5587 5588 5589 5588 5589 5590 5588 5588 5583 5578 5576 5575 5574 5572 5569 5565 5564 5565 5567 5567 5564 5563 5567 5575 5589 5601 5592 5598 5596
5592 5589 5584 5579 5577 5577 5578 5580 5581 5584 5585 5586 5585 5584 5585 5586 5586 5586 5586 5583 5584 5582 5580 5574 5570 5568 5566 5565 5563 5562 5560 5559 5560 5560 5559 5555 5564 5570 5572 5579 5581 5579 5583
5590 5588 5584 5581 5578 5576 5575 5576 5578 5579 5582 5583 5581 5580 5578 5579 5580 5579 5579 5578 5579 5581 5581 5575 5567 5564 5560 5558 5555 5555 5556 5557 5557 5556 5555 5554 5555 5556 5562 5563 5569 5574 5578
5589 5587 5582 5578 5577 5574 5574 5574 5573 5575 5578 5579 5578 5575 5573 5574 5573 5572 5571 5569 5572 5574 5576 5573 5566 5561 5558 5556 5552 5548 5548 5550 5552 5553 5552 5551 5552 5553 5554 5556 5562 5565 5565
5588 5586 5582 5578 5576 5573 5571 5571 5571 5572 5572 5572 5571 5569 5569 5569 5569 5567 5564 5563 5563 5566 5567 5568 5562 5557 5554 5551 5548 5545 5543 5543 5544 5545 5545 5547 5547 5547 5547 5547 5550 5551 5549
5586 5583 5581 5578 5576 5573 5572 5569 5569 5569 5567 5568 5567 5565 5564 5563 5562 5561 5559 5558 5557 5557 5563 5563 5558 5554 5551 5547 5545 5542 5540 5538 5538 5538 5536 5536 5536 5537 5538 5538 5539 5537 5536
5582 5580 5578 5576 5574 5573 5571 5569 5568 5568 5565 5564 5564 5561 5560 5559 5556 5555 5553 5552 5551 5550 5551 5555 5556 5552 5546 5543 5541 5538 5536 5533 5531 5530 5530 5528 5529 5529 5528 5527 5526 5526 5525
5579 5577 5575 5573 5572 5570 5568 5567 5566 5565 5563 5561 5558 5556 5554 5552 5549 5548 5547 5545 5544 5545 5543 5544 5547 5544 5542 5539 5538 5536 5532 5529 5526 5523 5522 5521 5522 5522 5520 5517 5516 5514 5513
5575 5575 5575 5574 5571 5569 5566 5563 5561 5559 5558 5557 5555 5553 5550 5547 5543 5541 5538 5536 5535 5533 5533 5533 5533 5533 5531 5530 5528 5525 5523 5520 5518 5515 5513 5511 5509 5508 5508 5506 5505 5504 5504
5570 5571 5570 5569 5568 5565 5563 5560 5557 5555 5552 5550 5548 5546 5545 5543 5541 5539 5535 5532 5527 5524 5522 5520 5519 5518 5517 5517 5517 5514 5512 5509 5507 5505 5504 5502 5500 5497 5496 5496 5497 5495 5494
5561 5562 5562 5561 5561 5562 5561 5558 5554 5551 5549 5546 5543 5540 5538 5538 5536 5534 5531 5527 5521 5517 5512 5508 5507 5508 5509 5506 5504 5502 5499 5497 5498 5493 5492 5493 5491 5488 5485 5482 5482 5483 5480
5555 5555 5554 5553 5554 5554 5552 5552 5548 5544 5541 5538 5535 5531 5528 5526 5524 5520 5518 5517 5515 5511 5507 5501 5498 5495 5495 5496 5493 5489 5485 5483 5481 5481 5478 5478 5476 5475 5474 5472 5470 5468 5466
5545 5547 5547 5546 5545 5546 5545 5543 5541 5537 5533 5531 5527 5523 5519 5516 5511 5506 5502 5499 5497 5495 5495 5493 5488 5486 5484 5483 5480 5478 5474 5470 5468 5466 5464 5462 5462 5461 5460 5461 5460 5456 5452
5537 5539 5538 5537 5534 5535 5534 5533 5531 5527 5524 5521 5516 5512 5509 5505 5501 5496 5489 5485 5483 5481 5481 5480 5478 5476 5473 5471 5467 5461 5456 5453 5454 5452 5450 5449 5447 5446 5445 5446 5446 5444 5442
5525 5526 5526 5526 5525 5524 5522 5520 5518 5513 5510 5508 5504 5500 5497 5493 5489 5487 5482 5474 5471 5470 5463 5461 5459 5458 5456 5453 5451 5449 5444 5439 5438 5436 5436 5432 5431 5430 5430 5429 5432 5429 5427